This demonstration page uses our WeatherBlox Daily Observations layout. Learn more.

Left ArrowRight Arrow

Hourly Observations for February 26, 2016

Temp ( °F °C ) Dew Point ( °F °C ) Humidity (%) Winds ( mph kmh ) Pressure ( in mb ) Visibility ( mi km ) Precip ( " mm )
12:58 am 00:58 Clear 28 -2.2 23 -5.1 81 81 WSW 1 2 30.37 1028 10 16 0.00 0.00
1:58 am 01:58 Clear 23 -4.8 22 -5.8 93 93 Calm 30.36 1028 10 16 0.00 0.00
2:58 am 02:58 Clear 21 -6.3 20 -6.6 98 98 S 1 2 30.35 1028 10 16 0.00 0.00
3:58 am 03:58 Clear 21 -6.2 20 -6.6 97 97 Calm 30.33 1027 10 16 0.00 0.00
4:58 am 04:58 Mostly Clear 21 -5.9 20 -6.4 96 96 S 3 6 30.32 1027 10 16 0.00 0.00
5:58 am 05:58 Clear 24 -4.6 22 -5.5 94 94 S 5 7 30.32 1027 10 16 0.00 0.00
6:58 am 06:58 Mostly Cloudy 24 -4.2 21 -5.9 88 88 SSE 5 7 30.30 1026 10 16 0.00 0.00
7:58 am 07:58 Mostly Cloudy 26 -3.5 24 -4.7 92 92 ESE 6 9 30.30 1026 10 16 0.00 0.00
8:58 am 08:58 Mostly Sunny 30 -1.3 25 -3.8 83 83 SSE 7 11 30.27 1025 10 16 0.00 0.00
9:58 am 09:58 Mostly Sunny 35 1.7 25 -3.7 68 68 S 10 17 30.24 1024 10 16 0.00 0.00
10:58 am 10:58 Sunny 41 5.2 25 -3.8 53 53 S 9 15 30.21 1023 10 16 0.00 0.00
11:58 am 11:58 Sunny 46 7.7 23 -4.8 41 41 S 13 20 30.19 1022 10 16 0.00 0.00
12:09 pm 12:09 Sunny 46 8 23 -5 40 40 S 13 20 30.18 1022 10 16 0.00 0.00
12:58 pm 12:58 Sunny 48 9 23 -5 37 37 SSW 13 20 30.16 1021 10 16 0.00 0.00
1:58 pm 13:58 Sunny 49 9.6 23 -4.9 36 36 SW 10 17 30.15 1021 10 16 0.00 0.00
2:58 pm 14:58 Sunny 50 10.2 24 -4.2 36 36 SW 8 13 30.14 1021 10 16 0.00 0.00
3:58 pm 15:58 Sunny 51 10.8 25 -4 35 35 VRB 7 11 30.14 1021 10 16 0.00 0.00
4:58 pm 16:58 Sunny 51 10.6 26 -3.6 37 37 WNW 12 19 30.14 1021 10 16 0.00 0.00
5:58 pm 17:58 Sunny 44 6.9 28 -2 53 53 WNW 6 9 30.13 1020 10 16 0.00 0.00
6:58 pm 18:58 Clear 36 2 26 -3.3 68 68 W 2 4 30.14 1021 10 16 0.00 0.00
7:58 pm 19:58 Clear 35 1.4 28 -2.4 76 76 W 2 4 30.14 1021 10 16 0.00 0.00
8:58 pm 20:58 Clear 34 0.9 27 -2.9 76 76 WNW 1 2 30.12 1020 10 16 0.00 0.00
9:58 pm 21:58 Clear 29 -1.9 26 -3.1 92 92 E 2 4 30.12 1020 10 16 0.00 0.00
10:58 pm 22:58 Clear 28 -2.3 26 -3.2 94 94 Calm 30.11 1020 10 16 0.00 0.00
11:58 pm 23:58 Clear 30 -1.3 28 -2.2 94 94 ESE 1 2 30.09 1019 10 16 0.00 0.00

Powered by AerisWeather